This is the latest recevied weather packets stored in our database for station/object S59DKS-10. If no packets are shown the sender has not sent any weather packets the latest 10 day(s).
| Time | Temp. | Humidity | Pressure | Rain* | Wind** | Luminosity | Snow |
|---|---|---|---|---|---|---|---|
| 1777512982 | 7.22° C | 50% | 1023.6 hPa | - | - | - | - |
| 1777512083 | 7.22° C | 51% | 1023.9 hPa | - | - | - | - |
| 1777511184 | 7.22° C | 52% | 1024 hPa | - | - | - | - |
| 1777510401 | 7.22° C | 53% | 1023.9 hPa | - | - | - | - |
| 1777510285 | 7.22° C | 53% | 1023.9 hPa | - | - | - | - |
| 1777509383 | 7.22° C | 53% | 1023.6 hPa | - | - | - | - |
| 1777508484 | 7.78° C | 58% | 1022.7 hPa | - | - | - | - |
| 1777507584 | 7.78° C | 63% | 1023.7 hPa | - | - | - | - |
| 1777506685 | 8.33° C | 60% | 1023.6 hPa | - | - | - | - |
| 1777505784 | 8.89° C | 53% | 1022.9 hPa | - | - | - | - |
| 1777504923 | 8.89° C | 51% | 1022.4 hPa | - | - | - | - |
| 1777504885 | 8.89° C | 51% | 1022.4 hPa | - | - | - | - |
| 1777503986 | 8.89° C | 51% | 1021.9 hPa | - | - | - | - |
| 1777503087 | 9.44° C | 51% | 1021.7 hPa | - | - | - | - |
| 1777502188 | 9.44° C | 51% | 1022.2 hPa | - | - | - | - |
| 1777501290 | 8.89° C | 54% | 1022 hPa | - | - | - | - |
| 1777500391 | 8.89° C | 54% | 1022 hPa | - | - | - | - |
| 1777499492 | 8.89° C | 56% | 1022.3 hPa | - | - | - | - |
| 1777498630 | 8.89° C | 58% | 1021.8 hPa | - | - | - | - |
| 1777498593 | 8.89° C | 58% | 1021.8 hPa | - | - | - | - |
| 1777497694 | 9.44° C | 56% | 1021.3 hPa | - | - | - | - |
| 1777496794 | 9.44° C | 57% | 1021.4 hPa | - | - | - | - |
| 1777495894 | 9.44° C | 62% | 1021.4 hPa | - | - | - | - |
| 1777495818 | 9.44° C | 63% | 1021.6 hPa | - | - | - | - |
| 1777495631 | 9.44° C | 63% | 1021.6 hPa | - | - | - | - |
* Rain since midnight (hover to see other rain measurements)
** Current wind speed in m/s (hover to see current wind gust speed)